User: anonymous   Login
Location: Pianadetto
(44.4000°N, 10.1000°E)
Time: 03:23:42
(UTC+00:00)
Language:

GP-B - Orbit

View from above orbital plane
View from above orbital plane
View from above satellite
View from above satellite

Ground track
Ground track

The orbit data is extracted from the following two-line orbital elements,

1 28230U 04014A   22279.76747627  .00001240  00000-0  16525-3 0  9991
2 28230  89.8120  79.0662 0003266  87.9429 272.2168 14.79156091995421
Epoch (UTC): 06 October 2022 18:25:09
Eccentricity: 0.0003266
inclination: 89.8120°
perigee height: 630 km
apogee height: 634 km
right ascension of ascending node: 79.0662°
argument of perigee: 87.9429°
revolutions per day: 14.79156091
mean anomaly at epoch: 272.2168°
orbit number at epoch: 99542

The dashed part of the orbit path shows where the satellite is in the earth's shadow,  

DLR